Enterprise, AL

7:01 AM CST on December 09, 2016 (GMT -0600)
Fort Rucker / Ozark

Weather History for KLOR - March, 2013

Change the Weather History Date:

Tuesday, March 26, 2013

  Actual Average (KOZR) Record (KOZR)
Temperature  
Mean Temperature 43 °F -  
Max Temperature 54 °F 70 °F 85 °F (2012)
Min Temperature 32 °F 47 °F 31 °F (2013)
Degree Days  
Heating Degree Days 22    
Moisture  
Dew Point 23 °F    
Average Humidity 48    
Maximum Humidity 69    
Minimum Humidity 30    
Precipitation  
Precipitation 0.00 in - - ()
Sea Level Pressure  
Sea Level Pressure 30.24 in    
Wind  
Wind Speed 7 mph (NNW)    
Max Wind Speed 18 mph    
Max Gust Speed 25 mph    
Visibility 10 miles    
Events      
Averages and records for this station are not official NWS values.
T = Trace of Precipitation, MM = Missing Value Source: NWS Daily Summary

Daily Weather History Graph

Daily Weather History Graph

Search for Another Location

Airport or City:

Trip Planner

Search our weather history database for the weather conditions in past years. The results will help you decide how hot, cold, wet, or windy it might be!

Date:

Astronomy

Mar. 26, 2013 Rise Set
Actual Time 6:38 AM CDT 6:58 PM CDT
Civil Twilight 6:14 AM CDT 7:22 PM CDT
Nautical Twilight 5:46 AM CDT 7:51 PM CDT
Astronomical Twilight 5:17 AM CDT 8:20 PM CDT
Moon 6:33 PM CDT (3/26) 5:53 AM CDT (3/26)
Length of Visible Light 13h 08m
Length of Day
12h 19m
Waxing Gibbous, 99% of the Moon is Illuminated
Mar 26
Waxing Gibbous
Mar 27
Full
Apr 2
Last Quarter
Apr 10
New
Apr 18
First Quarter

Hourly Weather History & Observations

Time (CDT) Temp. Windchill Dew Point Humidity Pressure Visibility Wind Dir Wind Speed Gust Speed Precip Events Conditions
12:53 AM 37.9 °F 35.5 °F 21.9 °F 53% 30.18 in 10.0 mi NNW 3.5 mph - N/A   Clear
1:53 AM 37.0 °F - 21.9 °F 54% 30.18 in 10.0 mi Calm Calm - N/A   Clear
2:53 AM 36.0 °F 33.3 °F 23.0 °F 59% 30.19 in 10.0 mi Variable 3.5 mph - N/A   Clear
3:53 AM 33.1 °F - 23.0 °F 66% 30.19 in 10.0 mi Calm Calm - N/A   Clear
4:53 AM 34.0 °F 31.0 °F 23.0 °F 64% 30.19 in 10.0 mi WNW 3.5 mph - N/A   Clear
5:53 AM 32.0 °F 28.7 °F 23.0 °F 69% 30.21 in 10.0 mi West 3.5 mph - N/A   Clear
6:53 AM 32.0 °F 27.5 °F 23.0 °F 69% 30.23 in 10.0 mi WNW 4.6 mph - N/A   Clear
7:53 AM 36.0 °F 29.6 °F 25.0 °F 64% 30.25 in 10.0 mi NW 8.1 mph - N/A   Clear
8:53 AM 39.9 °F 30.8 °F 24.1 °F 53% 30.26 in 10.0 mi NNW 18.4 mph 24.2 mph N/A   Clear
9:16 AM 41.0 °F 32.8 °F 24.8 °F 53% 30.26 in 10.0 mi NNW 16.1 mph 25.3 mph N/A   Partly Cloudy
9:53 AM 43.0 °F 37.2 °F 23.0 °F 45% 30.27 in 10.0 mi NNW 10.4 mph 20.7 mph N/A   Clear
10:53 AM 45.0 °F 39.3 °F 21.9 °F 40% 30.27 in 10.0 mi NW 11.5 mph 18.4 mph N/A   Mostly Cloudy
11:53 AM 48.0 °F - 23.0 °F 37% 30.26 in 10.0 mi NW 13.8 mph 25.3 mph N/A   Scattered Clouds
12:53 PM 50.0 °F - 23.0 °F 35% 30.24 in 10.0 mi North 11.5 mph 18.4 mph N/A   Scattered Clouds
1:20 PM 51.8 °F - 23.0 °F 33% 30.24 in 10.0 mi North 15.0 mph 25.3 mph N/A   Partly Cloudy
1:53 PM 50.0 °F - 21.9 °F 33% 30.23 in 10.0 mi NNW 13.8 mph 19.6 mph N/A   Partly Cloudy
2:53 PM 52.0 °F - 21.9 °F 31% 30.22 in 10.0 mi NW 15.0 mph 24.2 mph N/A   Partly Cloudy
3:53 PM 54.0 °F - 23.0 °F 30% 30.21 in 10.0 mi NNW 16.1 mph 25.3 mph N/A   Clear
4:53 PM 52.0 °F - 21.9 °F 31% 30.22 in 10.0 mi NNW 10.4 mph 21.9 mph N/A   Clear
5:53 PM 50.0 °F - 23.0 °F 35% 30.24 in 10.0 mi NNW 11.5 mph 20.7 mph N/A   Clear
6:03 PM 50.0 °F - 21.2 °F 32% 30.24 in 10.0 mi North 10.4 mph - N/A   Partly Cloudy
6:53 PM 46.0 °F 41.9 °F 23.0 °F 40% 30.26 in 10.0 mi North 8.1 mph - N/A   Clear
7:53 PM 43.0 °F 38.8 °F 24.1 °F 47% 30.28 in 10.0 mi North 6.9 mph - N/A   Clear
8:53 PM 41.0 °F 37.1 °F 24.1 °F 51% 30.30 in 10.0 mi NNW 5.8 mph - N/A   Clear
9:53 PM 39.0 °F 34.8 °F 24.1 °F 55% 30.32 in 10.0 mi North 5.8 mph - N/A   Clear
10:53 PM 37.9 °F 34.4 °F 24.1 °F 57% 30.33 in 10.0 mi North 4.6 mph - N/A   Clear
11:53 PM 36.0 °F - 24.1 °F 62% 30.34 in 10.0 mi Calm Calm - N/A   Clear